Regional Weather Roundup
Issued by NWS

Home | Current Version | Previous Version | Text Only | Print | Product List | Glossary On
Versions: 1 2 3 4 5 6 7 8 9 10 11 12 13 14 15 16 17 18 19 20 21 22 23 24 25 26 27 28 29 30 31 32 33 34 35 36 37 38 39 40 41 42 43 44 45 46 47 48 49 50
000
ASHW40 PHFO 271943
RWRHI

WEATHER ROUNDUP FOR HAWAII
NATIONAL WEATHER SERVICE HONOLULU HI
900 AM HST THU APR 27 2017

THIS IS AN AUTOMATED REPORT THAT HAS NOT BEEN QUALITY CONTROLLED.

NOTE..."FAIR" INDICATES FEW OR NO CLOUDS BELOW 12,000 FEET WITH NO
SIGNIFICANT WEATHER AND/OR OBSTRUCTIONS TO VISIBILITY.

* - THESE SITES REPORT LIMITED FIELDS

HIZ001>004-272000-
KAUAI-NIIHAU-

CITY           SKY/WX    TMP DP  RH WIND       PRES   REMARKS
LIHUE APT      PTSUNNY   76  71  85 NE14      30.09S
PORT ALLEN*      N/A     77 N/A N/A NW3         N/A
POIPU*           N/A     75 N/A N/A N3G9        N/A
PRINCEVILLE*     N/A     72 N/A N/A S3          N/A
KOKOLE POINT*  NOT AVBL
MOLOAA DAIRY*    N/A     75  72  88 E3G10       N/A
WAIMEA HTS*      N/A     81  64  57 W5G12       N/A
PUU OPAE*      NOT AVBL
PUU LUA*       NOT AVBL
MAKAHA RIDGE*    N/A     72  61  68 W3          N/A
$$

HIZ005>011-272000-
OAHU-

CITY           SKY/WX    TMP DP  RH WIND       PRES   REMARKS
HONOLULU       MOSUNNY   80  63  55 N7        30.06S
KALAELOA       SUNNY     83  65  54 NE7       30.08R
KANEOHE MCB    NOT AVBL
WHEELER FIELD  MOSUNNY   76  65  70 E8        30.07S
BELLOWS*         N/A    N/A N/A N/A NE8         N/A
KAHUKU*          N/A    N/A N/A N/A NE7G14      N/A
WHEELER*         N/A    N/A N/A N/A NE7G13      N/A
WAIANAE HARBOR   N/A    N/A N/A N/A SW8         N/A
DILLINGHAM*      N/A     88  73  62 SW5G10      N/A  HX  96
KAHUKU TRN*      N/A     70  57  64 NW3G14      N/A
KAWAILOA*        N/A     75  64  69 E6          N/A
KII*             N/A     79  68  69 E10         N/A
MAKUA RANGE*     N/A     81  66  61 E3          N/A
OAHU FOREST NW   N/A     73  63  68 E10G17      N/A
SCHOFIELD BRK*   N/A     63  52  67 MISG        N/A
SCHOFIELD S*   NOT AVBL
WAIANAE VLY*     N/A     64  48  55 SE5G10      N/A
KUAOKALA*        N/A     77  66  69 NE10G18     N/A
HONOULIUULI*   NOT AVBL
MOKUOLOE IS*   NOT AVBL
PALEHUA*         N/A     73  64  73 NE6G13      N/A
WAIAWA PHB*    NOT AVBL
$$

HIZ012>013-272000-
MOLOKAI-

CITY           SKY/WX    TMP DP  RH WIND       PRES   REMARKS
MOLOKAI AIRPT  MOSUNNY   72  69  90 NE12      30.07S
KALAUPAPA      NOT AVBL
MAKAPULAPAI*     N/A     82  70  65 E12         N/A
MOLOKAI 1*       N/A     75  59  57 SE1G9       N/A
PUU ALII*        N/A     64  56  75 NE2G8       N/A
$$

HIZ016-272000-
KAHOOLAWE-

CITY           SKY/WX    TMP DP  RH WIND       PRES   REMARKS
KAHOOLAWE*     NOT AVBL
HAKIOAWA*        N/A     77  66  68 MISG      30.48S
HONOKANAIA*      N/A     83  64  52 N5G12     29.99R
KANELOA*         N/A     73  64  73 NE12G18   30.11R
KEALIALALO*    NOT AVBL
LUA MAKIKA*    NOT AVBL
$$

HIZ014>015-272000-
LANAI-

CITY           SKY/WX    TMP DP  RH WIND       PRES   REMARKS
LANAI CITY     FAIR      76  62  62 VRB3      30.11S
LANAI 1*       NOT AVBL
$$

HIZ017>028-272000-
MAUI-

CITY           SKY/WX    TMP DP  RH WIND       PRES   REMARKS
KAHULUI        MOSUNNY   80  63  55 N8        30.05S
KAPALUA-W MAUI MOSUNNY   81  63  54 VRB7      30.06S
HANA AIRPORT   NOT AVBL
HANA*            N/A     79 N/A N/A E8          N/A
HALEAKALA SUMM   N/A     52  23  32 E14         N/A
MAALAEA BAY*     N/A     82 N/A N/A NE9         N/A
HALEAKALA*     NOT AVBL
KAUPO GAP*     NOT AVBL
KULA 1*          N/A     56  43  61 NW3         N/A
$$

HIZ023>026-272000-
BIG ISLAND OF HAWAII COAST AND LOWER SLOPES-

CITY           SKY/WX    TMP DP  RH WIND       PRES   REMARKS
KAILUA KONA    MOSUNNY   80  67  64 SW7       30.04R
HILO           PTSUNNY   77  67  71 VRB3      30.05S
HONOKAA*         N/A     77 N/A N/A VRB1        N/A
KAWAIHAE MWT*    N/A     81 N/A N/A W6          N/A
KAWAIHAE*        N/A     79 N/A N/A W9        30.04R
SOUTH POINT*     N/A     75 N/A N/A NE13G18     N/A
UPOLU AIRPORT* NOT AVBL
KAMUELA*       CLEAR     75  59  57 W7        30.15R
HAKALAU*         N/A     61  48  63 SE6G12      N/A
KALOKO-HONOKO*   N/A     81  66  61 SW3G9     30.03S
PALI 2*          N/A     72  59  64 NW7         N/A
KEALAKOMO*       N/A     81  68  65 E12         N/A
KAUPULEHU*       N/A     81  63  54 SW10G16     N/A
KAPAPALA*        N/A     79  61  53 SE5         N/A
LOWER KAHUKU*    N/A     68  54  60 NE2G10      N/A
PUHE CS*         N/A     81  64  57 W5          N/A
PUHO CS*         N/A     74  68  82 E2          N/A
PTA KEAMUKU*     N/A     70  55  60 CALM        N/A
WAIKOLOA*        N/A     81  63  54 W10G16      N/A
$$

HIZ027>028-272000-
BIG ISLAND OF HAWAII INTERIOR AND SUMMMITS-

CITY           SKY/WX    TMP DP  RH WIND       PRES   REMARKS
BRADSHAW FIELD MOSUNNY   64  34  32 CALM      30.34S
MK VISITOR CEN   N/A     52  32  46 SE10        N/A
MAUNA KEA*       N/A     45  -9  10 NE14        N/A
MAUNA LOA*       N/A    N/A N/A N/A MISG        N/A
MAUNA LOA 1*   NOT AVBL
PTA KIPUKA*      N/A     70  50  49 NW3G10      N/A
PTA RANGE 17*    N/A     70  43  37 NE6G16      N/A
PTA WEST*        N/A     52  37  58 NW12G17     N/A
NENE CABIN*      N/A     55  45  67 E9G20       N/A
AHUMOA*          N/A     60  51  72 NW6         N/A
PTA PORTABLE*  NOT AVBL
PUU MALI*        N/A     61  48  63 NW5         N/A
$$

HIC003-272000-
NORTHWEST ISLANDS-

CITY           SKY/WX    TMP DP  RH WIND       PRES   REMARKS
MIDWAY ISLAND  PTSUNNY   63  46  55 NE12G23   30.36R
MIDWAY NOS*      N/A     64 N/A N/A MISG      30.35R
FRENCH FRIGATE NOT AVBL
$$

PHZ110>124-180-272000-
BUOY REPORTS

STATION/POSITION TIME  TEMP    WIND        PRES    WAVE   SWELL
                       AIR SEA DIR/SP/G            HT/PER HT/DIR
                 (UTC) (F)     (DEG/KT/KT) (MB)    (FT/S) (FT/D)
BUOY 51001       1920   76 78  170/  6/  8 1018.5
BUOY 51101       1850   76 78  160/  8/ 10 1018.9R   5/ 8   5/150
BUOY 51100       NOT AVBL
BUOY 51002       1920   78 78   90/ 12/ 16 1016.6
BUOY 51003       1850   76 79   50/  6/  8 1017.7R   6/11   5/340
BUOY 51004       1850      78   70/ 16/ 23 1016.5R   6/ 8   5/ 80
BARBERS PT BUOY  NOT AVBL
WAIMEA BAY BUOY  1902      77                N/A     3/11   2/320
KAILUA BAY BUOY  1904      78                N/A     4/ 5   2/ 10
LANAI BUOY       1915      79                N/A     3/15   2/200
BARBERS PT 2     NOT AVBL
PAUWELA MAUI     1909      77                N/A     5/12   2/320
HILO             1912      78                N/A     5/ 8   2/350
KANEOHE BAY BUOY 1925      78                N/A     4/ 5
HANALEI KAUAI    1922      78                N/A     4/11   2/310
KAHULUI HARBOR   1912   76 78  350/ 10/ 13 1017.8
HONOLULU HARBOR  1912   80 79   70/  6/  9 1018.7
KILO NALU        NOT AVBL
HILO HARBOR      1912   82 76  160/  5/  7 1017.4
MOKUOLOE         1836   80 79  110/  4/  7 1018.4R
NAWILIWILI       1912   72 82  260/  7/  8 1018.4
WHOTS BUOY       NOT AVBL
BUOY 51028       NOT AVBL
$$

......................KEY........................................
  SKY/WX - SKY CONDITIONS/PRESENT WEATHER
  TMP    - TEMPERATURE IN FAHRENHEIT
  DWPT   - DEWPOINT IN FAHRENHEIT
  RH     - RELATIVE HUMIDITY IN PERCENT
  WIND   - DIRECTION AND SPEED /MPH FOR ISLANDS...KTS FOR BUOYS/
  PRES   - MEAN SEA LEVEL PRESSURE IN INCHES OF HG
  VSB    - VISIBILITY IN MILES
  HX     - HEAT INDEX
  WCI    - WIND CHILL INDEX
  VRB    - VARIABLE WIND DIRECTION
  N/A    - NOT AVAILABLE




USA.gov is the U.S. government's official web portal to all federal, state and local government web resources and services.